Time,TemperatureF,DewpointF,PressureIn,WindDirection,WindDirectionDegrees,WindSpeedMPH,WindSpeedGustMPH,Humidity,HourlyPrecipIn,Conditions,Clouds,dailyrainin,SoftwareType,DateUTC
2013-04-18 00:02:00,74.0,62.0,29.67,North,-999,-999.0,-999.0,68,-99.99,,,-99.99,,2013-04-18 05:02:00,
2013-04-18 00:12:00,73.0,62.0,29.66,North,-999,-999.0,-999.0,68,-99.99,,,-99.99,,2013-04-18 05:12:00,
2013-04-18 00:22:00,73.0,62.0,29.66,North,-999,-999.0,-999.0,68,-99.99,,,-99.99,,2013-04-18 05:22:00,
2013-04-18 00:33:00,73.0,62.0,29.65,North,-999,-999.0,-999.0,69,-99.99,,,-99.99,,2013-04-18 05:33:00,
2013-04-18 00:42:00,73.0,63.0,29.65,North,-999,-999.0,-999.0,70,-99.99,,,-99.99,,2013-04-18 05:42:00,
2013-04-18 00:52:00,73.0,63.0,29.65,North,-999,-999.0,-999.0,70,-99.99,,,-99.99,,2013-04-18 05:52:00,
2013-04-18 01:02:00,73.0,63.0,29.66,North,-999,-999.0,-999.0,71,-99.99,,,-99.99,,2013-04-18 06:02:00,
2013-04-18 01:12:00,73.0,63.0,29.65,North,-999,-999.0,-999.0,71,-99.99,,,-99.99,,2013-04-18 06:12:00,
2013-04-18 01:22:00,73.0,63.0,29.65,North,-999,-999.0,-999.0,71,-99.99,,,-99.99,,2013-04-18 06:22:00,
2013-04-18 01:32:00,72.0,63.0,29.64,North,-999,-999.0,-999.0,72,-99.99,,,-99.99,,2013-04-18 06:32:00,
2013-04-18 01:42:00,72.0,63.0,29.64,North,-999,-999.0,-999.0,72,-99.99,,,-99.99,,2013-04-18 06:42:00,
2013-04-18 01:52:00,72.0,63.0,29.64,North,-999,-999.0,-999.0,72,-99.99,,,-99.99,,2013-04-18 06:52:00,
2013-04-18 02:02:00,72.0,63.0,29.65,North,-999,-999.0,-999.0,72,-99.99,,,-99.99,,2013-04-18 07:02:00,
2013-04-18 02:12:00,72.0,63.0,29.63,North,-999,-999.0,-999.0,73,-99.99,,,-99.99,,2013-04-18 07:12:00,
2013-04-18 02:22:00,72.0,63.0,29.63,North,-999,-999.0,-999.0,73,-99.99,,,-99.99,,2013-04-18 07:22:00,
2013-04-18 02:32:00,72.0,63.0,29.60,North,-999,-999.0,-999.0,73,-99.99,,,-99.99,,2013-04-18 07:32:00,
2013-04-18 02:42:00,72.0,63.0,29.59,North,-999,-999.0,-999.0,74,-99.99,,,-99.99,,2013-04-18 07:42:00,
2013-04-18 02:52:00,72.0,63.0,29.59,North,-999,-999.0,-999.0,74,-99.99,,,-99.99,,2013-04-18 07:52:00,
2013-04-18 03:02:00,72.0,63.0,29.59,North,-999,-999.0,-999.0,74,-99.99,,,-99.99,,2013-04-18 08:02:00,
2013-04-18 03:12:00,72.0,63.0,29.58,North,-999,-999.0,-999.0,73,-99.99,,,-99.99,,2013-04-18 08:12:00,
2013-04-18 03:22:00,72.0,63.0,29.58,North,-999,-999.0,-999.0,73,-99.99,,,-99.99,,2013-04-18 08:22:00,
2013-04-18 03:32:00,72.0,63.0,29.58,North,-999,-999.0,-999.0,73,-99.99,,,-99.99,,2013-04-18 08:32:00,
2013-04-18 03:42:00,72.0,63.0,29.57,North,-999,-999.0,-999.0,72,-99.99,,,-99.99,,2013-04-18 08:42:00,
2013-04-18 03:52:00,72.0,63.0,29.57,North,-999,-999.0,-999.0,72,-99.99,,,-99.99,,2013-04-18 08:52:00,
2013-04-18 04:02:00,72.0,63.0,29.56,North,-999,-999.0,-999.0,72,-99.99,,,-99.99,,2013-04-18 09:02:00,
2013-04-18 04:12:00,72.0,62.0,29.57,North,-999,-999.0,-999.0,71,-99.99,,,-99.99,,2013-04-18 09:12:00,
2013-04-18 04:22:00,72.0,62.0,29.57,North,-999,-999.0,-999.0,71,-99.99,,,-99.99,,2013-04-18 09:22:00,
2013-04-18 04:33:00,71.0,63.0,29.58,North,-999,-999.0,-999.0,76,-99.99,,,-99.99,,2013-04-18 09:33:00,
2013-04-18 04:43:00,67.0,58.0,29.62,North,-999,-999.0,-999.0,74,-99.99,,,-99.99,,2013-04-18 09:43:00,
2013-04-18 04:53:00,67.0,58.0,29.62,North,-999,-999.0,-999.0,74,-99.99,,,-99.99,,2013-04-18 09:53:00,
2013-04-18 05:03:00,62.0,58.0,29.65,North,-999,-999.0,-999.0,86,-99.99,,,-99.99,,2013-04-18 10:03:00,
2013-04-18 05:12:00,62.0,58.0,29.63,North,-999,-999.0,-999.0,87,-99.99,,,-99.99,,2013-04-18 10:12:00,
2013-04-18 05:23:00,62.0,58.0,29.63,North,-999,-999.0,-999.0,87,-99.99,,,-99.99,,2013-04-18 10:23:00,
2013-04-18 05:32:00,61.0,58.0,29.63,North,-999,-999.0,-999.0,88,-99.99,,,-99.99,,2013-04-18 10:32:00,
2013-04-18 05:42:00,61.0,57.0,29.63,North,-999,-999.0,-999.0,88,-99.99,,,-99.99,,2013-04-18 10:42:00,
2013-04-18 05:52:00,61.0,57.0,29.63,North,-999,-999.0,-999.0,88,-99.99,,,-99.99,,2013-04-18 10:52:00,
2013-04-18 06:02:00,61.0,58.0,29.62,North,-999,-999.0,-999.0,89,-99.99,,,-99.99,,2013-04-18 11:02:00,
2013-04-18 06:12:00,61.0,58.0,29.64,North,-999,-999.0,-999.0,89,-99.99,,,-99.99,,2013-04-18 11:12:00,
2013-04-18 06:22:00,61.0,58.0,29.64,North,-999,-999.0,-999.0,89,-99.99,,,-99.99,,2013-04-18 11:22:00,
2013-04-18 06:32:00,61.0,58.0,29.63,North,-999,-999.0,-999.0,89,-99.99,,,-99.99,,2013-04-18 11:32:00,
2013-04-18 06:42:00,61.0,58.0,29.63,North,-999,-999.0,-999.0,89,-99.99,,,-99.99,,2013-04-18 11:42:00,
2013-04-18 06:52:00,61.0,58.0,29.63,North,-999,-999.0,-999.0,89,-99.99,,,-99.99,,2013-04-18 11:52:00,
2013-04-18 07:02:00,61.0,58.0,29.59,North,-999,-999.0,-999.0,89,-99.99,,,-99.99,,2013-04-18 12:02:00,
2013-04-18 07:12:00,61.0,57.0,29.59,North,-999,-999.0,-999.0,89,-99.99,,,-99.99,,2013-04-18 12:12:00,
2013-04-18 07:22:00,61.0,57.0,29.59,North,-999,-999.0,-999.0,89,-99.99,,,-99.99,,2013-04-18 12:22:00,
2013-04-18 07:32:00,61.0,57.0,29.58,North,-999,-999.0,-999.0,89,-99.99,,,-99.99,,2013-04-18 12:32:00,
2013-04-18 07:42:00,61.0,57.0,29.59,North,-999,-999.0,-999.0,89,-99.99,,,-99.99,,2013-04-18 12:42:00,
2013-04-18 07:52:00,61.0,57.0,29.59,North,-999,-999.0,-999.0,89,-99.99,,,-99.99,,2013-04-18 12:52:00,
2013-04-18 08:02:00,61.0,58.0,29.59,North,-999,-999.0,-999.0,90,-99.99,,,-99.99,,2013-04-18 13:02:00,
2013-04-18 08:12:00,61.0,58.0,29.61,North,-999,-999.0,-999.0,90,-99.99,,,-99.99,,2013-04-18 13:12:00,
2013-04-18 08:22:00,61.0,58.0,29.61,North,-999,-999.0,-999.0,90,-99.99,,,-99.99,,2013-04-18 13:22:00,
2013-04-18 08:32:00,61.0,58.0,29.61,North,-999,-999.0,-999.0,90,-99.99,,,-99.99,,2013-04-18 13:32:00,
2013-04-18 08:42:00,61.0,58.0,29.62,North,-999,-999.0,-999.0,90,-99.99,,,-99.99,,2013-04-18 13:42:00,
2013-04-18 08:52:00,61.0,58.0,29.62,North,-999,-999.0,-999.0,90,-99.99,,,-99.99,,2013-04-18 13:52:00,
2013-04-18 09:02:00,62.0,59.0,29.62,North,-999,-999.0,-999.0,90,-99.99,,,-99.99,,2013-04-18 14:02:00,
2013-04-18 09:12:00,62.0,59.0,29.59,North,-999,-999.0,-999.0,91,-99.99,,,-99.99,,2013-04-18 14:12:00,
2013-04-18 09:22:00,62.0,59.0,29.59,North,-999,-999.0,-999.0,91,-99.99,,,-99.99,,2013-04-18 14:22:00,
2013-04-18 09:32:00,63.0,60.0,29.58,North,-999,-999.0,-999.0,91,-99.99,,,-99.99,,2013-04-18 14:32:00,
2013-04-18 09:42:00,63.0,60.0,29.58,North,-999,-999.0,-999.0,91,-99.99,,,-99.99,,2013-04-18 14:42:00,
2013-04-18 09:52:00,63.0,60.0,29.58,North,-999,-999.0,-999.0,91,-99.99,,,-99.99,,2013-04-18 14:52:00,
2013-04-18 10:03:00,63.0,60.0,29.58,North,-999,-999.0,-999.0,89,-99.99,,,-99.99,,2013-04-18 15:03:00,
2013-04-18 10:12:00,63.0,60.0,29.58,North,-999,-999.0,-999.0,89,-99.99,,,-99.99,,2013-04-18 15:12:00,
2013-04-18 10:22:00,63.0,60.0,29.58,North,-999,-999.0,-999.0,89,-99.99,,,-99.99,,2013-04-18 15:22:00,
2013-04-18 10:33:00,63.0,60.0,29.59,North,-999,-999.0,-999.0,88,-99.99,,,-99.99,,2013-04-18 15:33:00,
2013-04-18 10:43:00,56.0,49.0,29.61,North,-999,-999.0,-999.0,78,-99.99,,,-99.99,,2013-04-18 15:43:00,
2013-04-18 10:52:00,56.0,49.0,29.61,North,-999,-999.0,-999.0,78,-99.99,,,-99.99,,2013-04-18 15:52:00,
2013-04-18 11:03:00,51.0,47.0,29.62,North,-999,-999.0,-999.0,86,-99.99,,,-99.99,,2013-04-18 16:03:00,
2013-04-18 11:13:00,49.0,45.0,29.64,North,-999,-999.0,-999.0,86,-99.99,,,-99.99,,2013-04-18 16:13:00,
2013-04-18 11:23:00,49.0,45.0,29.64,North,-999,-999.0,-999.0,86,-99.99,,,-99.99,,2013-04-18 16:23:00,
2013-04-18 11:33:00,47.0,44.0,29.65,North,-999,-999.0,-999.0,87,-99.99,,,-99.99,,2013-04-18 16:33:00,
2013-04-18 11:43:00,47.0,44.0,29.68,North,-999,-999.0,-999.0,88,-99.99,,,-99.99,,2013-04-18 16:43:00,
2013-04-18 11:52:00,47.0,44.0,29.68,North,-999,-999.0,-999.0,88,-99.99,,,-99.99,,2013-04-18 16:52:00,
2013-04-18 12:03:00,46.0,42.0,29.69,North,-999,-999.0,-999.0,86,-99.99,,,-99.99,,2013-04-18 17:03:00,
2013-04-18 12:12:00,45.0,42.0,29.70,North,-999,-999.0,-999.0,86,-99.99,,,-99.99,,2013-04-18 17:12:00,
2013-04-18 12:22:00,45.0,42.0,29.70,North,-999,-999.0,-999.0,86,-99.99,,,-99.99,,2013-04-18 17:22:00,
2013-04-18 12:33:00,45.0,41.0,29.73,North,-999,-999.0,-999.0,86,-99.99,,,-99.99,,2013-04-18 17:33:00,
2013-04-18 12:42:00,45.0,41.0,29.74,North,-999,-999.0,-999.0,87,-99.99,,,-99.99,,2013-04-18 17:42:00,
2013-04-18 12:52:00,45.0,41.0,29.74,North,-999,-999.0,-999.0,87,-99.99,,,-99.99,,2013-04-18 17:52:00,
2013-04-18 13:02:00,44.0,39.0,29.73,North,-999,-999.0,-999.0,85,-99.99,,,-99.99,,2013-04-18 18:02:00,
2013-04-18 13:12:00,43.0,39.0,29.70,North,-999,-999.0,-999.0,84,-99.99,,,-99.99,,2013-04-18 18:12:00,
2013-04-18 13:23:00,43.0,39.0,29.70,North,-999,-999.0,-999.0,84,-99.99,,,-99.99,,2013-04-18 18:23:00,
2013-04-18 13:32:00,43.0,39.0,29.71,North,-999,-999.0,-999.0,85,-99.99,,,-99.99,,2013-04-18 18:32:00,
2013-04-18 13:42:00,42.0,38.0,29.73,North,-999,-999.0,-999.0,85,-99.99,,,-99.99,,2013-04-18 18:42:00,
2013-04-18 13:52:00,42.0,38.0,29.73,North,-999,-999.0,-999.0,85,-99.99,,,-99.99,,2013-04-18 18:52:00,
2013-04-18 14:02:00,41.0,37.0,29.73,North,-999,-999.0,-999.0,84,-99.99,,,-99.99,,2013-04-18 19:02:00,
2013-04-18 14:12:00,41.0,37.0,29.73,North,-999,-999.0,-999.0,86,-99.99,,,-99.99,,2013-04-18 19:12:00,
2013-04-18 14:22:00,41.0,37.0,29.73,North,-999,-999.0,-999.0,86,-99.99,,,-99.99,,2013-04-18 19:22:00,
2013-04-18 14:32:00,41.0,37.0,29.73,North,-999,-999.0,-999.0,85,-99.99,,,-99.99,,2013-04-18 19:32:00,
2013-04-18 14:42:00,41.0,37.0,29.73,North,-999,-999.0,-999.0,85,-99.99,,,-99.99,,2013-04-18 19:42:00,
2013-04-18 14:52:00,41.0,37.0,29.73,North,-999,-999.0,-999.0,85,-99.99,,,-99.99,,2013-04-18 19:52:00,
2013-04-18 15:02:00,41.0,37.0,29.74,North,-999,-999.0,-999.0,85,-99.99,,,-99.99,,2013-04-18 20:02:00,
2013-04-18 15:12:00,41.0,36.0,29.74,North,-999,-999.0,-999.0,83,-99.99,,,-99.99,,2013-04-18 20:12:00,
2013-04-18 15:22:00,41.0,36.0,29.74,North,-999,-999.0,-999.0,83,-99.99,,,-99.99,,2013-04-18 20:22:00,
2013-04-18 15:32:00,41.0,35.0,29.75,North,-999,-999.0,-999.0,80,-99.99,,,-99.99,,2013-04-18 20:32:00,
2013-04-18 15:42:00,41.0,35.0,29.75,North,-999,-999.0,-999.0,80,-99.99,,,-99.99,,2013-04-18 20:42:00,
2013-04-18 15:52:00,41.0,35.0,29.75,North,-999,-999.0,-999.0,80,-99.99,,,-99.99,,2013-04-18 20:52:00,
2013-04-18 16:02:00,41.0,35.0,29.76,North,-999,-999.0,-999.0,79,-99.99,,,-99.99,,2013-04-18 21:02:00,
2013-04-18 16:12:00,41.0,35.0,29.78,North,-999,-999.0,-999.0,79,-99.99,,,-99.99,,2013-04-18 21:12:00,
2013-04-18 16:22:00,41.0,35.0,29.78,North,-999,-999.0,-999.0,79,-99.99,,,-99.99,,2013-04-18 21:22:00,
2013-04-18 16:32:00,41.0,36.0,29.77,North,-999,-999.0,-999.0,81,-99.99,,,-99.99,,2013-04-18 21:32:00,
2013-04-18 16:43:00,42.0,35.0,29.77,North,-999,-999.0,-999.0,76,-99.99,,,-99.99,,2013-04-18 21:43:00,
2013-04-18 16:52:00,42.0,35.0,29.77,North,-999,-999.0,-999.0,76,-99.99,,,-99.99,,2013-04-18 21:52:00,
2013-04-18 17:02:00,41.0,34.0,29.78,North,-999,-999.0,-999.0,76,-99.99,,,-99.99,,2013-04-18 22:02:00,
2013-04-18 17:13:00,41.0,33.0,29.78,North,-999,-999.0,-999.0,74,-99.99,,,-99.99,,2013-04-18 22:13:00,
2013-04-18 17:23:00,41.0,33.0,29.78,North,-999,-999.0,-999.0,74,-99.99,,,-99.99,,2013-04-18 22:23:00,
2013-04-18 17:32:00,41.0,33.0,29.79,North,-999,-999.0,-999.0,72,-99.99,,,-99.99,,2013-04-18 22:32:00,
2013-04-18 17:42:00,41.0,33.0,29.80,North,-999,-999.0,-999.0,73,-99.99,,,-99.99,,2013-04-18 22:42:00,
2013-04-18 17:52:00,41.0,33.0,29.80,North,-999,-999.0,-999.0,73,-99.99,,,-99.99,,2013-04-18 22:52:00,
2013-04-18 18:04:00,41.0,32.0,29.79,North,-999,-999.0,-999.0,72,-99.99,,,-99.99,,2013-04-18 23:04:00,
2013-04-18 18:12:00,41.0,32.0,29.79,North,-999,-999.0,-999.0,72,-99.99,,,-99.99,,2013-04-18 23:12:00,
2013-04-18 18:21:00,41.0,32.0,29.79,North,-999,-999.0,-999.0,72,-99.99,,,-99.99,,2013-04-18 23:21:00,
2013-04-18 18:32:00,41.0,32.0,29.81,North,-999,-999.0,-999.0,71,-99.99,,,-99.99,,2013-04-18 23:32:00,
2013-04-18 18:42:00,41.0,32.0,29.81,North,-999,-999.0,-999.0,70,-99.99,,,-99.99,,2013-04-18 23:42:00,
2013-04-18 18:52:00,41.0,32.0,29.81,North,-999,-999.0,-999.0,70,-99.99,,,-99.99,,2013-04-18 23:52:00,
2013-04-18 19:01:00,40.0,31.0,29.82,North,-999,-999.0,-999.0,70,-99.99,,,-99.99,,2013-04-19 00:01:00,
2013-04-18 19:12:00,40.0,32.0,29.82,North,-999,-999.0,-999.0,72,-99.99,,,-99.99,,2013-04-19 00:12:00,
2013-04-18 19:22:00,40.0,32.0,29.82,North,-999,-999.0,-999.0,72,-99.99,,,-99.99,,2013-04-19 00:22:00,
2013-04-18 19:32:00,40.0,31.0,29.83,North,-999,-999.0,-999.0,70,-99.99,,,-99.99,,2013-04-19 00:32:00,
2013-04-18 19:42:00,40.0,31.0,29.83,North,-999,-999.0,-999.0,70,-99.99,,,-99.99,,2013-04-19 00:42:00,
2013-04-18 19:51:00,40.0,31.0,29.83,North,-999,-999.0,-999.0,70,-99.99,,,-99.99,,2013-04-19 00:51:00,
2013-04-18 20:01:00,40.0,30.0,29.82,North,-999,-999.0,-999.0,67,-99.99,,,-99.99,,2013-04-19 01:01:00,
2013-04-18 20:11:00,40.0,30.0,29.83,North,-999,-999.0,-999.0,69,-99.99,,,-99.99,,2013-04-19 01:11:00,
2013-04-18 20:21:00,40.0,30.0,29.83,North,-999,-999.0,-999.0,69,-99.99,,,-99.99,,2013-04-19 01:21:00,
2013-04-18 20:32:00,40.0,31.0,29.84,North,-999,-999.0,-999.0,70,-99.99,,,-99.99,,2013-04-19 01:32:00,
2013-04-18 20:42:00,39.0,30.0,29.84,North,-999,-999.0,-999.0,69,-99.99,,,-99.99,,2013-04-19 01:42:00,
2013-04-18 20:52:00,39.0,30.0,29.84,North,-999,-999.0,-999.0,69,-99.99,,,-99.99,,2013-04-19 01:52:00,
2013-04-18 21:02:00,39.0,30.0,29.85,North,-999,-999.0,-999.0,68,-99.99,,,-99.99,,2013-04-19 02:02:00,
2013-04-18 21:11:00,39.0,30.0,29.85,North,-999,-999.0,-999.0,69,-99.99,,,-99.99,,2013-04-19 02:11:00,
2013-04-18 21:21:00,39.0,30.0,29.85,North,-999,-999.0,-999.0,69,-99.99,,,-99.99,,2013-04-19 02:21:00,
2013-04-18 21:32:00,39.0,30.0,29.85,North,-999,-999.0,-999.0,71,-99.99,,,-99.99,,2013-04-19 02:32:00,
2013-04-18 21:42:00,39.0,30.0,29.86,North,-999,-999.0,-999.0,70,-99.99,,,-99.99,,2013-04-19 02:42:00,
2013-04-18 21:51:00,39.0,30.0,29.86,North,-999,-999.0,-999.0,70,-99.99,,,-99.99,,2013-04-19 02:51:00,
2013-04-18 22:01:00,39.0,30.0,29.87,North,-999,-999.0,-999.0,69,-99.99,,,-99.99,,2013-04-19 03:01:00,
2013-04-18 22:11:00,39.0,28.0,29.87,North,-999,-999.0,-999.0,66,-99.99,,,-99.99,,2013-04-19 03:11:00,
2013-04-18 22:21:00,39.0,28.0,29.87,North,-999,-999.0,-999.0,66,-99.99,,,-99.99,,2013-04-19 03:21:00,
2013-04-18 22:33:00,39.0,27.0,29.88,North,-999,-999.0,-999.0,63,-99.99,,,-99.99,,2013-04-19 03:33:00,
2013-04-18 22:43:00,39.0,28.0,29.88,North,-999,-999.0,-999.0,66,-99.99,,,-99.99,,2013-04-19 03:43:00,
2013-04-18 22:53:00,39.0,28.0,29.88,North,-999,-999.0,-999.0,66,-99.99,,,-99.99,,2013-04-19 03:53:00,
2013-04-18 23:03:00,39.0,29.0,29.87,North,-999,-999.0,-999.0,68,-99.99,,,-99.99,,2013-04-19 04:03:00,
2013-04-18 23:13:00,39.0,29.0,29.87,North,-999,-999.0,-999.0,68,-99.99,,,-99.99,,2013-04-19 04:13:00,
2013-04-18 23:23:00,39.0,29.0,29.87,North,-999,-999.0,-999.0,68,-99.99,,,-99.99,,2013-04-19 04:23:00,
2013-04-18 23:33:00,39.0,29.0,29.88,North,-999,-999.0,-999.0,67,-99.99,,,-99.99,,2013-04-19 04:33:00,
2013-04-18 23:43:00,38.0,28.0,29.87,North,-999,-999.0,-999.0,67,-99.99,,,-99.99,,2013-04-19 04:43:00,
2013-04-18 23:52:00,38.0,28.0,29.87,North,-999,-999.0,-999.0,67,-99.99,,,-99.99,,2013-04-19 04:52:00,